Location: Unspecified
(35.7250°N, 0.0000°E)
Time: 13:35:48
(UTC+00:00)

Vanguard 1 - Pass Details

Date: 02 July 2019
Orbit: 653 x 3830 km, 34.3° (Epoch: 22 July)

Event Time Altitude Azimuth Distance (km) Brightness Sun altitude
Rises 02:01:42 0° 263° (W) 7,970 14.4 -24.9°
Reaches altitude 10° 02:07:16 10° 263° (W) 6,894 14.0 -24.4°
Maximum altitude 02:29:49 86° 179° (S) 2,912 12.3 -21.8°
Drops below altitude 10° 02:43:02 10° 92° (E) 4,367 13.8 -20.2°
Sets 02:45:42 0° 92° (E) 5,042 14.2 -19.9°
